Regional Weather Roundup
Issued by NWS

Home | Current Version | Previous Version | Text Only | Print | Product List | Glossary Off
Versions: 1 2 3 4 5 6 7 8 9 10 11 12 13 14 15 16 17 18 19 20 21 22 23 24 25 26 27 28 29 30 31 32 33 34 35 36 37 38 39 40 41 42 43 44 45 46 47 48 49 50

000
ASUS43 KIND 161600
RWRIN

WEATHER ROUNDUP FOR INDIANA
NATIONAL WEATHER SERVICE INDIANAPOLIS IN
1200 PM EDT MON OCT 16 2017

NOTE: "FAIR" INDICATES FEW OR NO CLOUDS BELOW 12,000 FEET WITH NO
SIGNIFICANT WEATHER AND/OR OBSTRUCTIONS TO VISIBILITY.

* - STATION DOES NOT REPORT WEATHER SUCH AS PRECIPITATION OR FOG.

+ - STATION NOT QUALITY CONTROLLED BY THE NATIONAL WEATHER SERVICE.
    USE DATA WITH CAUTION...ESPECIALLY DEWPOINT AND RELATIVE
    HUMIDITY OBSERVATIONS.

INZ001>003-010>013-019-020-161700-
NORTHWEST INDIANA

CITY           SKY/WX    TMP DP  RH WIND       PRES   REMARKS
GARY /AIRPORT/ SUNNY     55  37  50 W8        30.34S
MONTICELLO +   SUNNY     55  36  48 NW9       30.34F

$$

LMZ046-743>745-161700-
SOUTHERN LAKE MICHIGAN

STATION/POSITION TIME  TEMP    WIND        PRES    WAVE
                       AIR SEA DIR/SP/G            HT
                 (UTC) (F)     (DEG/KT/KT) (MB)    (FT)
BURNS HARBOR     1540   53     280/  9/ 11 1027.4S
MICHIGAN CITY    1530   51     240/ 15/ 16   N/A
5NW MICH CITY    1540   52 57  270/ 12/ 16   N/A     4

$$

INZ004-005-014>016-021>024-161700-
NORTH CENTRAL INDIANA

CITY           SKY/WX    TMP DP  RH WIND       PRES   REMARKS
ELKHART        PTSUNNY   54  43  66 W10       30.31S
GOSHEN         MOSUNNY   54  42  64 W9        30.31S
PERU/GRISSOM   SUNNY     55  41  59 W10       30.33S
SOUTH BEND     MOSUNNY   53  41  63 NW8G18    30.32S

$$

INZ006>009-017-018-025>027-161700-
NORTHEAST INDIANA

CITY           SKY/WX    TMP DP  RH WIND       PRES   REMARKS
FORT WAYNE     PTSUNNY   55  40  56 NW6       30.33R
KENDALLVILLE + MOSUNNY   54  43  65 W6        30.31F

$$

INZ028-029-035-036-043>045-051>053-161700-
WEST CENTRAL INDIANA

CITY           SKY/WX    TMP DP  RH WIND       PRES   REMARKS
LAFAYETTE      NOT AVBL
TERRE HAUTE    SUNNY     56  38  50 VRB3      30.38S

$$

INZ030>032-037>040-046>048-054>057-064-065-161700-
CENTRAL INDIANA

CITY           SKY/WX    TMP DP  RH WIND       PRES   REMARKS
ANDERSON       MOSUNNY   54  39  58 NW12      30.34R
INDIANAPOLIS   MOSUNNY   56  37  49 NW10      30.37R
-EAGLE CREEK   SUNNY     55  36  48 NW8       30.35S
KOKOMO +       MOSUNNY   55  41  59 VRB3      30.35S
MT COMFORT *+  MOSUNNY   54  43  66 N7        30.36R
SHELBYVILLE    MOSUNNY   57  37  47 NW12G17   30.34S

$$

INZ033-034-041-042-049-050-058-059-161700-
EAST CENTRAL INDIANA

CITY           SKY/WX    TMP DP  RH WIND       PRES   REMARKS
MUNCIE         PTSUNNY   57  41  55 VRB5      30.34R
RICHMOND +     MOSUNNY   52  41  66 NW8       30.33S

$$

INZ060-061-067>069-081>083-085>088-161700-
SOUTHWEST INDIANA

CITY           SKY/WX    TMP DP  RH WIND       PRES   REMARKS
EVANSVILLE     MOSUNNY   57  40  52 VRB5      30.39S
HUNTINGBURG +  SUNNY     56  41  57 NE9       30.38S

$$

INZ062-063-066-070>080-084-089>092-161700-
SOUTH CENTRAL AND SOUTHEAST INDIANA

CITY           SKY/WX    TMP DP  RH WIND       PRES   REMARKS
BLOOMINGTON    SUNNY     56  38  50 VRB6      30.36S
MADISON *+     MOSUNNY   57  39  51 N5        30.36S

$$





USA.gov is the U.S. government's official web portal to all federal, state and local government web resources and services.